Date String (YYYY-MM-DD hh:mm:ss) UTC,Instrument flags,Ambient pressure (hPa),Sample flow (lpm),Bypass flow (lpm),Sample temperature (°C),Ambient temperature (°C),ASC tube jacket temperature (°C),LED temperature (°C),Box temperature (°C),Sample RH (%),Span deviation,Mass concentration (μg/m³),Mass concentration (μg/m³),Mass concentration (μg/m³)
DateTimeUTC,F1_M11,P_M11,Q1_M11,Q2_M11,T1_M11,T2_M11,T3_M11,T4_M11,T5_M11,U1_M11,ZSPAN_M11,X0_M11,X2_M11,X1_M11
2022-05-13 23:00:00,,0824.0,4.99,0.00,29.5,28.1,00.0,38.4,31.3,06.2,0000.0,0007.74,0003.47,0002.34
2022-05-13 23:01:00,,0824.1,5.00,0.00,29.5,28.3,00.0,38.4,31.3,06.2,0000.0,0007.72,0003.48,0002.33
2022-05-13 23:02:00,,0824.1,5.01,0.00,29.5,28.4,00.0,38.4,31.3,06.1,0000.0,0007.62,0003.47,0002.34
2022-05-13 23:03:00,,0824.1,5.00,0.00,29.6,28.5,00.0,38.5,31.4,05.9,0000.0,0007.79,0003.44,0002.34
2022-05-13 23:04:00,,0824.1,4.99,0.00,29.6,28.5,00.0,38.5,31.4,06.0,0000.0,0007.89,0003.47,0002.34
2022-05-13 23:05:00,,0824.2,4.98,0.00,29.6,28.6,00.0,38.5,31.5,05.6,0000.0,0007.94,0003.51,0002.34
2022-05-13 23:06:00,,0824.2,5.01,0.00,29.7,28.7,00.0,38.5,31.5,05.6,0000.0,0007.83,0003.50,0002.33
2022-05-13 23:07:00,,0824.1,5.01,0.00,29.7,28.8,00.0,38.5,31.5,05.7,0000.0,0007.42,0003.49,0002.32
2022-05-13 23:08:00,,0824.0,4.99,0.00,29.7,28.8,00.0,38.5,31.6,05.8,0000.0,0007.35,0003.48,0002.32
2022-05-13 23:09:00,,0824.1,5.01,0.00,29.8,28.9,00.0,38.6,31.7,05.7,0000.0,0007.46,0003.53,0002.33
2022-05-13 23:10:00,,0824.1,5.01,0.00,29.8,28.9,00.0,38.6,31.7,05.5,0000.0,0007.63,0003.58,0002.33
2022-05-13 23:11:00,,0824.1,5.00,0.00,29.8,28.9,00.0,38.6,31.7,05.6,0000.0,0007.72,0003.61,0002.34
2022-05-13 23:12:00,,0824.1,5.00,0.00,29.8,29.0,00.0,38.6,31.8,05.6,0000.0,0007.64,0003.59,0002.34
2022-05-13 23:13:00,,0824.1,4.99,0.00,29.9,29.0,00.0,38.6,31.8,05.3,0000.0,0007.56,0003.58,0002.34
2022-05-13 23:14:00,,0824.2,5.01,0.00,29.8,27.5,00.0,38.6,31.4,05.4,0000.0,0007.43,0003.59,0002.34
2022-05-13 23:15:00,,0824.1,5.01,0.00,29.7,25.4,00.0,38.6,30.9,05.6,0000.0,0007.60,0003.57,0002.36
2022-05-13 23:16:00,,0824.1,5.00,0.00,29.6,25.2,00.0,38.6,30.9,05.6,0000.0,0007.72,0003.59,0002.37
2022-05-13 23:17:00,,0824.1,4.99,0.00,29.5,25.7,00.0,38.5,30.9,05.7,0000.0,0007.64,0003.56,0002.36
2022-05-13 23:18:00,,0824.0,5.01,0.00,29.4,26.2,00.0,38.5,31.0,05.7,0000.0,0007.66,0003.54,0002.36
2022-05-13 23:19:00,,0824.1,4.98,0.00,29.4,26.6,00.0,38.4,31.1,05.8,0000.0,0007.70,0003.51,0002.35
2022-05-13 23:20:00,,0824.0,5.00,0.00,29.4,27.0,00.0,38.4,31.2,05.8,0000.0,0007.58,0003.45,0002.32
2022-05-13 23:21:00,,0824.1,5.00,0.00,29.4,27.4,00.0,38.4,31.2,05.8,0000.0,0007.28,0003.37,0002.31
2022-05-13 23:22:00,,0824.1,5.01,0.00,29.5,27.7,00.0,38.4,31.3,06.2,0000.0,0006.96,0003.30,0002.29
2022-05-13 23:23:00,,0824.1,5.00,0.00,29.5,27.9,00.0,38.4,31.3,06.0,0000.0,0006.87,0003.29,0002.28
2022-05-13 23:24:00,,0824.1,5.00,0.00,29.5,28.1,00.0,38.4,31.4,06.0,0000.0,0006.91,0003.30,0002.29
2022-05-13 23:25:00,,0824.1,4.99,0.00,29.6,28.3,00.0,38.4,31.4,06.2,0000.0,0006.89,0003.33,0002.29
2022-05-13 23:26:00,,0824.1,5.01,0.00,29.6,28.4,00.0,38.4,31.5,05.9,0000.0,0006.53,0003.33,0002.26
2022-05-13 23:27:00,,0824.0,5.00,0.00,29.6,28.6,00.0,38.4,31.5,05.7,0000.0,0006.45,0003.34,0002.27
2022-05-13 23:28:00,,0824.0,5.00,0.00,29.7,28.7,00.0,38.5,31.5,05.8,0000.0,0006.42,0003.35,0002.26
2022-05-13 23:29:00,,0824.1,5.00,0.00,29.7,28.8,00.0,38.5,31.6,05.7,0000.0,0006.49,0003.36,0002.25
2022-05-13 23:30:00,,0824.1,4.99,0.00,29.7,28.8,00.0,38.5,31.6,06.0,0000.0,0006.44,0003.36,0002.26
2022-05-13 23:31:00,,0824.1,5.02,0.00,29.8,28.9,00.0,38.5,31.7,06.1,0000.0,0007.29,0003.39,0002.27
2022-05-13 23:32:00,,0824.1,5.00,0.00,29.8,28.9,00.0,38.5,31.7,05.9,0000.0,0007.46,0003.41,0002.27
2022-05-13 23:33:00,,0824.0,5.00,0.00,29.8,29.0,00.0,38.6,31.7,06.1,0000.0,0008.41,0003.46,0002.27
2022-05-13 23:34:00,,0824.1,4.99,0.00,29.9,29.0,00.0,38.6,31.7,05.9,0000.0,0008.51,0003.47,0002.26
2022-05-13 23:35:00,,0824.0,5.00,0.00,29.9,29.0,00.0,38.6,31.7,06.1,0000.0,0008.53,0003.46,0002.26
2022-05-13 23:36:00,,0824.0,5.01,0.00,29.9,29.0,00.0,38.6,31.7,05.4,0000.0,0008.47,0003.45,0002.26
2022-05-13 23:37:00,,0824.1,5.00,0.00,29.9,27.4,00.0,38.7,31.4,05.2,0000.0,0008.44,0003.47,0002.28
2022-05-13 23:38:00,,0824.0,5.01,0.00,29.7,26.1,00.0,38.6,31.1,05.2,0000.0,0008.41,0003.48,0002.29
2022-05-13 23:39:00,,0824.1,4.99,0.00,29.7,26.4,00.0,38.6,31.2,05.6,0000.0,0008.39,0003.46,0002.31
2022-05-13 23:40:00,,0824.1,5.01,0.00,29.6,26.7,00.0,38.6,31.2,05.9,0000.0,0008.33,0003.47,0002.33
2022-05-13 23:41:00,,0824.1,4.99,0.00,29.6,27.1,00.0,38.6,31.3,05.7,0000.0,0008.40,0003.50,0002.33
2022-05-13 23:42:00,,0824.1,5.00,0.00,29.6,27.5,00.0,38.5,31.4,06.1,0000.0,0008.33,0003.53,0002.33
2022-05-13 23:43:00,,0824.0,5.01,0.00,29.7,27.8,00.0,38.5,31.4,06.3,0000.0,0008.51,0003.56,0002.34
2022-05-13 23:44:00,,0824.0,5.00,0.00,29.7,28.1,00.0,38.5,31.5,05.9,0000.0,0007.59,0003.55,0002.34
2022-05-13 23:45:00,,0824.1,5.00,0.00,29.7,28.3,00.0,38.5,31.5,05.6,0000.0,0007.59,0003.57,0002.36
2022-05-13 23:46:00,,0824.1,5.00,0.00,29.7,28.4,00.0,38.6,31.6,05.8,0000.0,0007.65,0003.58,0002.36
2022-05-13 23:47:00,,0824.2,5.01,0.00,29.8,28.6,00.0,38.6,31.6,05.7,0000.0,0007.63,0003.57,0002.36
2022-05-13 23:48:00,,0824.2,4.99,0.00,29.8,28.7,00.0,38.6,31.6,05.7,0000.0,0007.61,0003.55,0002.36
2022-05-13 23:49:00,,0824.2,5.00,0.00,29.8,28.8,00.0,38.6,31.7,05.6,0000.0,0007.63,0003.57,0002.37
2022-05-13 23:50:00,,0824.1,5.00,0.00,29.9,28.9,00.0,38.6,31.7,05.3,0000.0,0007.64,0003.59,0002.37
2022-05-13 23:51:00,,0824.1,5.00,0.00,29.9,29.0,00.0,38.7,31.8,05.6,0000.0,0007.78,0003.64,0002.38
2022-05-13 23:52:00,,0824.1,5.00,0.00,29.9,29.1,00.0,38.7,31.8,05.4,0000.0,0007.76,0003.64,0002.39
2022-05-13 23:53:00,,0824.1,4.99,0.00,30.0,29.1,00.0,38.7,31.7,05.7,0000.0,0007.57,0003.61,0002.41
2022-05-13 23:54:00,,0824.1,5.02,0.00,29.9,27.5,00.0,38.7,31.4,05.8,0000.0,0007.43,0003.60,0002.42
2022-05-13 23:55:00,,0824.1,4.99,0.00,29.7,25.2,00.0,38.7,30.9,05.7,0000.0,0007.47,0003.62,0002.44
2022-05-13 23:56:00,,0824.1,5.01,0.00,29.6,25.1,00.0,38.6,30.8,05.9,0000.0,0007.52,0003.64,0002.45
2022-05-13 23:57:00,,0824.1,4.99,0.00,29.5,25.6,00.0,38.6,30.9,05.7,0000.0,0007.60,0003.65,0002.45
2022-05-13 23:58:00,,0824.0,5.00,0.00,29.5,26.1,00.0,38.5,31.0,05.9,0000.0,0007.61,0003.66,0002.45
2022-05-13 23:59:00,,0824.1,5.00,0.00,29.5,26.6,00.0,38.5,31.1,05.8,0000.0,0007.64,0003.66,0002.45
